�N����,����,�~����,�C��,���x,�C��,����,���ϕ���,�ő�u�ԕ���,�ő厞����,���˗�,�I�_���x,�n�����x,�ő啗���N��,DTYPE
"16/12/26","00:10",0.0,2.5,93.6,1022.3,293.2,2.0,2.4,313.0,0.00,1.6,7.4,"00:03:00",1
"16/12/26","00:20",0.0,2.6,93.9,1022.0,292.9,1.8,2.0,309.4,0.00,1.8,7.5,"00:16:46",1
"16/12/26","00:30",0.0,2.5,94.0,1022.0,296.2,1.7,2.6,312.0,0.00,1.7,7.6,"00:29:16",1
"16/12/26","00:40",0.0,2.6,94.1,1022.0,308.6,2.1,2.9,313.8,0.00,1.8,7.4,"00:33:56",1
"16/12/26","00:50",0.0,2.5,93.9,1021.5,289.1,1.6,2.2,308.8,0.00,1.7,7.4,"00:49:26",1
"16/12/26","01:00",0.0,2.3,94.2,1021.5,295.9,2.0,2.6,311.5,0.00,1.5,7.4,"00:50:46",1
"16/12/26","01:10",0.0,2.3,94.8,1021.3,298.9,1.8,2.2,302.7,0.00,1.6,7.4,"01:04:58",1
"16/12/26","01:20",0.0,2.1,94.7,1021.5,293.6,2.1,2.8,312.6,0.00,1.4,7.1,"01:12:36",1
"16/12/26","01:30",0.0,2.0,95.5,1021.5,293.3,2.1,2.8,314.9,0.00,1.4,7.2,"01:27:10",1
"16/12/26","01:40",0.0,2.2,95.6,1021.3,297.4,2.3,3.6,316.9,0.00,1.6,7.1,"01:34:00",1
"16/12/26","01:50",0.0,2.2,96.0,1021.8,297.8,1.7,2.7,315.7,0.00,1.7,7.0,"01:43:14",1
"16/12/26","02:00",0.0,2.4,96.0,1022.0,295.0,1.3,3.5,301.3,0.00,1.9,7.2,"01:57:42",1
"16/12/26","02:10",0.0,2.2,95.4,1022.0,319.7,2.6,3.7,322.8,0.00,1.6,7.0,"02:03:58",1
"16/12/26","02:20",0.0,1.8,95.4,1022.0,285.5,1.7,2.5,321.2,0.00,1.2,7.0,"02:10:18",1
"16/12/26","02:30",0.0,1.6,95.9,1021.3,306.8,2.1,2.7,313.6,0.00,1.1,6.9,"02:26:48",1
"16/12/26","02:40",0.0,1.3,96.3,1022.0,299.4,1.7,2.9,307.2,0.00,0.8,6.7,"02:30:50",1
"16/12/26","02:50",0.0,1.3,96.7,1021.5,302.1,1.8,3.2,314.0,0.00,0.9,6.7,"02:49:54",1
"16/12/26","03:00",0.0,1.1,97.1,1020.4,292.0,1.7,3.4,322.7,0.00,0.7,7.1,"02:50:32",1
"16/12/26","03:10",0.0,1.0,97.9,1020.6,275.0,1.7,2.1,271.6,0.00,0.7,6.9,"03:07:36",1
"16/12/26","03:20",0.0,1.3,98.1,1020.4,305.4,1.8,2.6,313.9,0.00,1.1,6.9,"03:12:56",1
"16/12/26","03:30",0.0,1.5,97.0,1020.4,298.4,2.1,2.7,312.2,0.00,1.1,6.8,"03:24:24",1
"16/12/26","03:40",0.0,1.3,97.8,1020.1,311.5,2.5,3.7,324.0,0.00,1.0,7.0,"03:35:22",1
"16/12/26","03:50",0.0,1.4,98.3,1019.9,278.2,2.0,2.2,290.4,0.00,1.2,6.9,"03:48:00",1
"16/12/26","04:00",0.0,1.8,97.4,1019.9,285.8,2.0,2.4,292.1,0.00,1.5,6.8,"03:56:00",1
"16/12/26","04:10",0.0,1.6,97.9,1019.9,305.9,2.1,4.0,321.4,0.00,1.3,6.8,"04:06:10",1
"16/12/26","04:20",0.0,1.3,97.9,1020.1,276.6,1.5,2.6,304.3,0.00,1.0,6.7,"04:15:20",1
"16/12/26","04:30",0.0,1.0,98.0,1019.9,291.4,1.8,2.1,293.5,0.00,0.8,6.8,"04:23:44",1
"16/12/26","04:40",0.0,1.1,97.3,1020.4,296.7,2.0,2.8,313.9,0.00,0.8,6.7,"04:30:02",1
"16/12/26","04:50",0.0,0.9,98.2,1020.4,303.8,2.3,3.4,320.3,0.00,0.7,6.5,"04:40:08",1
"16/12/26","05:00",0.0,1.0,97.3,1020.4,290.9,1.6,1.9,292.0,0.00,0.7,6.5,"04:54:48",1
"16/12/26","05:10",0.0,0.7,98.7,1020.1,290.4,1.5,2.4,319.8,0.00,0.6,6.6,"05:09:12",1
"16/12/26","05:20",0.0,1.1,98.0,1020.1,291.8,1.8,2.5,306.7,0.00,0.9,6.6,"05:17:36",1
"16/12/26","05:30",0.0,1.3,97.9,1020.1,309.7,3.0,3.9,322.4,0.00,1.0,6.7,"05:26:32",1
"16/12/26","05:40",0.0,1.1,99.0,1020.1,301.0,2.3,3.1,308.0,0.00,1.0,6.6,"05:30:32",1
"16/12/26","05:50",0.0,1.5,98.3,1020.4,299.4,2.0,2.6,308.3,0.00,1.3,6.5,"05:41:28",1
"16/12/26","06:00",0.0,1.6,98.2,1020.4,290.2,1.7,2.4,305.9,0.00,1.4,6.7,"05:55:20",1
"16/12/26","06:10",0.0,1.8,98.3,1020.1,299.3,2.1,3.1,312.3,0.00,1.6,6.6,"06:09:44",1
"16/12/26","06:20",0.0,1.9,98.2,1020.1,300.6,2.3,2.9,314.9,0.00,1.7,6.4,"06:10:32",1
"16/12/26","06:30",0.0,2.1,98.4,1019.9,293.4,2.0,2.8,305.6,0.00,1.9,6.5,"06:20:48",1
"16/12/26","06:40",0.0,2.6,98.1,1019.9,315.7,1.7,2.5,311.5,0.00,2.4,6.5,"06:37:12",1
"16/12/26","06:50",0.0,2.7,97.7,1020.1,291.7,1.5,2.7,318.2,0.00,2.4,6.5,"06:40:48",1
"16/12/26","07:00",0.0,2.5,98.5,1020.4,322.3,0.6,1.3,282.5,0.00,2.3,6.7,"06:50:08",1
"16/12/26","07:10",0.0,2.8,97.4,1019.9,299.5,1.1,1.8,280.3,0.00,2.5,6.8,"07:04:24",1
"16/12/26","07:20",0.0,2.7,98.2,1020.1,300.0,1.0,1.4,283.2,0.00,2.5,6.6,"07:11:44",1
"16/12/26","07:30",0.0,3.0,97.2,1020.4,300.4,1.0,2.0,310.3,0.00,2.6,6.7,"07:29:20",1
"16/12/26","07:40",0.0,3.1,98.0,1020.6,327.6,1.1,2.4,315.8,0.00,2.9,6.7,"07:30:02",1
"16/12/26","07:50",0.0,3.6,96.8,1020.4,307.9,1.7,2.6,317.7,0.00,3.2,6.8,"07:44:24",1
"16/12/26","08:00",0.0,3.5,97.5,1020.6,280.6,1.2,1.8,311.3,0.00,3.2,6.5,"07:59:52",1
"16/12/26","08:10",0.0,3.8,97.5,1021.1,315.5,1.7,2.6,321.7,0.01,3.5,6.9,"08:00:02",1
"16/12/26","08:20",0.0,4.1,97.0,1020.8,314.4,1.6,2.7,324.6,0.03,3.7,6.9,"08:10:16",1
"16/12/26","08:30",0.0,4.5,96.0,1020.6,283.3,1.3,1.6,262.2,0.02,4.0,6.6,"08:28:32",1
"16/12/26","08:40",0.0,5.0,95.1,1020.6,281.3,1.6,2.1,291.0,0.03,4.3,7.0,"08:34:00",1
"16/12/26","08:50",0.0,5.3,93.6,1021.1,286.3,1.6,1.8,288.0,0.03,4.4,7.1,"08:40:08",1
"16/12/26","09:00",0.0,5.6,92.5,1021.1,293.7,1.2,2.0,303.0,0.02,4.5,7.1,"08:53:44",1
"16/12/26","09:10",0.0,5.7,91.4,1021.1,284.7,0.7,1.4,296.5,0.03,4.5,7.2,"09:08:32",1
"16/12/26","09:20",0.0,6.0,90.2,1021.1,303.9,1.1,1.8,320.8,0.06,4.6,7.3,"09:13:36",1
"16/12/26","09:30",0.0,6.4,89.8,1020.8,306.7,2.1,2.7,316.3,0.07,4.9,7.4,"09:24:08",1
"16/12/26","09:40",0.0,6.9,86.9,1020.6,277.3,1.3,1.9,308.2,0.10,4.9,7.5,"09:31:52",1
"16/12/26","09:50",0.0,7.8,83.9,1021.3,291.6,1.2,2.4,317.3,0.18,5.3,7.5,"09:40:02",1
"16/12/26","10:00",0.0,8.2,81.1,1021.3,292.7,1.3,2.6,312.3,0.13,5.2,7.6,"09:56:08",1
"16/12/26","10:10",0.0,8.7,77.1,1021.8,290.8,1.2,1.9,291.0,0.19,5.0,7.9,"10:02:16",1
"16/12/26","10:20",0.0,8.9,71.9,1021.5,294.3,1.2,1.9,296.2,0.15,4.2,7.8,"10:12:24",1
"16/12/26","10:30",0.0,9.2,70.1,1021.3,272.8,0.8,1.2,259.1,0.17,4.1,8.0,"10:22:16",1
"16/12/26","10:40",0.0,9.5,67.5,1021.3,301.7,1.2,1.9,313.5,0.14,3.8,8.3,"10:35:28",1
"16/12/26","10:50",0.0,9.5,69.6,1021.5,278.5,1.0,1.4,306.9,0.13,4.3,8.4,"10:40:48",1
"16/12/26","11:00",0.0,9.7,65.7,1020.8,275.5,0.7,1.2,260.3,0.15,3.6,8.3,"10:50:16",1
"16/12/26","11:10",0.0,9.9,63.4,1020.1,247.0,0.6,1.2,258.2,0.14,3.3,8.5,"11:08:00",1
"16/12/26","11:20",0.0,10.2,65.2,1019.9,287.5,0.7,1.2,287.0,0.10,4.0,8.5,"11:11:36",1
"16/12/26","11:30",0.0,10.3,64.6,1019.7,283.3,1.0,1.2,268.8,0.09,4.0,8.9,"11:20:56",1
"16/12/26","11:40",0.0,10.1,64.4,1019.4,293.0,1.5,2.0,308.7,0.05,3.7,8.8,"11:33:36",1
"16/12/26","11:50",0.0,10.1,65.8,1019.0,323.2,1.5,2.5,336.0,0.06,4.0,8.9,"11:41:04",1
"16/12/26","12:00",0.0,10.0,67.6,1019.2,321.1,1.7,2.1,325.4,0.07,4.3,8.8,"11:58:08",1
"16/12/26","12:10",0.0,9.9,68.5,1019.0,317.9,1.6,2.1,336.5,0.04,4.4,8.8,"12:00:48",1
"16/12/26","12:20",0.0,10.2,70.7,1017.8,296.7,1.0,1.3,309.9,0.09,5.2,8.9,"12:10:56",1
"16/12/26","12:30",0.0,10.5,66.2,1017.5,301.5,1.3,1.7,313.6,0.16,4.5,9.0,"12:25:28",1
"16/12/26","12:40",0.0,11.0,64.9,1017.8,304.6,1.0,1.7,314.3,0.24,4.7,9.1,"12:32:16",1
"16/12/26","12:50",0.0,11.4,64.9,1017.5,322.4,1.3,2.4,325.4,0.35,5.1,9.2,"12:42:24",1
"16/12/26","13:00",0.0,11.9,64.7,1017.3,306.0,0.8,1.8,321.0,0.25,5.5,9.5,"12:56:32",1
"16/12/26","13:10",0.0,11.9,62.0,1017.1,315.0,0.8,1.6,334.5,0.21,4.9,9.5,"13:00:56",1
"16/12/26","13:20",0.0,12.1,62.6,1016.8,297.8,0.5,1.3,327.6,0.25,5.2,9.6,"13:10:24",1
"16/12/26","13:30",0.0,12.0,61.1,1016.1,308.0,1.6,2.5,317.6,0.22,4.8,9.8,"13:22:00",1
"16/12/26","13:40",0.0,11.9,61.6,1016.1,316.8,0.8,2.6,336.8,0.19,4.8,9.9,"13:33:44",1
"16/12/26","13:50",0.0,12.3,61.0,1016.1,267.6,0.8,1.9,244.9,0.22,5.0,10.0,"13:47:20",1
"16/12/26","14:00",0.0,12.6,61.0,1015.6,163.8,0.8,1.8,101.6,0.19,5.3,10.3,"13:57:44",1
"16/12/26","14:10",0.0,12.8,60.1,1015.4,156.5,0.8,2.0,125.7,0.20,5.3,10.4,"14:07:28",1
"16/12/26","14:20",0.0,12.4,60.5,1015.2,82.3,0.8,2.0,112.6,0.13,5.0,10.3,"14:12:00",1
"16/12/26","14:30",0.0,12.5,59.8,1015.4,92.8,0.7,1.8,93.9,0.07,4.9,10.3,"14:20:32",1
"16/12/26","14:40",0.0,12.9,59.8,1015.2,2.6,0.7,1.6,344.9,0.15,5.3,10.5,"14:39:28",1
"16/12/26","14:50",0.0,12.9,58.4,1015.2,356.8,1.1,2.9,359.4,0.14,5.0,10.5,"14:43:20",1
"16/12/26","15:00",0.0,12.7,58.9,1014.7,287.1,0.6,1.4,271.0,0.06,4.9,10.3,"14:52:56",1
"16/12/26","15:10",0.0,12.4,59.7,1014.7,33.7,0.7,1.4,346.8,0.04,4.8,10.3,"15:03:28",1
"16/12/26","15:20",0.0,12.3,62.2,1014.5,137.6,0.3,1.1,103.3,0.03,5.3,10.4,"15:11:44",1
"16/12/26","15:30",0.0,12.2,63.2,1014.2,54.6,0.5,1.1,47.4,0.02,5.5,10.3,"15:28:08",1
"16/12/26","15:40",0.0,12.1,65.9,1014.5,333.9,1.0,1.7,342.5,0.01,6.0,10.5,"15:30:56",1
"16/12/26","15:50",0.0,12.0,68.6,1014.5,317.0,1.3,1.7,319.4,0.01,6.5,10.6,"15:47:28",1
"16/12/26","16:00",0.0,11.9,69.9,1014.0,320.5,1.3,1.9,321.3,0.00,6.6,10.6,"15:56:24",1
"16/12/26","16:10",0.0,11.7,74.0,1014.0,325.5,1.3,2.0,323.5,0.00,7.3,10.5,"16:07:44",1
"16/12/26","16:20",0.0,11.4,75.0,1013.8,305.3,1.3,2.0,317.8,0.00,7.2,10.2,"16:10:02",1
"16/12/26","16:30",0.0,11.2,75.1,1014.2,318.1,1.6,2.0,318.8,0.00,7.0,10.3,"16:20:24",1
"16/12/26","16:40",0.0,11.1,77.1,1013.8,316.6,1.3,1.8,318.7,0.00,7.3,10.3,"16:31:12",1
"16/12/26","16:50",0.0,10.9,77.4,1013.5,324.8,1.2,1.7,317.3,0.00,7.1,10.2,"16:41:12",1
"16/12/26","17:00",0.0,10.7,79.3,1013.5,289.8,1.2,1.4,304.7,0.00,7.3,10.4,"16:51:52",1
"16/12/26","17:10",0.0,10.5,80.8,1013.3,304.9,1.0,1.6,317.9,0.00,7.4,10.2,"17:00:08",1
"16/12/26","17:20",0.0,10.3,81.8,1012.8,288.8,0.8,1.4,316.9,0.00,7.4,10.2,"17:16:32",1
"16/12/26","17:30",0.0,10.1,83.4,1013.0,317.7,1.6,2.1,317.7,0.00,7.5,10.2,"17:21:28",1
"16/12/26","17:40",0.0,10.0,83.7,1013.0,316.2,1.5,1.9,339.2,0.00,7.4,10.0,"17:32:32",1
"16/12/26","17:50",0.0,9.9,82.9,1013.3,316.8,1.3,1.7,318.0,0.00,7.2,10.1,"17:41:36",1
"16/12/26","18:00",0.0,9.9,83.0,1012.6,314.4,1.7,2.0,309.6,0.00,7.2,10.0,"17:52:16",1
"16/12/26","18:10",0.0,9.8,83.9,1012.6,303.4,1.2,1.9,318.1,0.00,7.3,10.0,"18:02:34",1
"16/12/26","18:20",0.0,9.8,84.2,1012.6,284.0,1.2,1.4,297.7,0.00,7.3,10.1,"18:13:28",1
"16/12/26","18:30",0.0,9.8,83.9,1012.8,291.5,1.2,1.8,318.7,0.00,7.3,10.0,"18:20:02",1
"16/12/26","18:40",0.0,9.8,83.8,1012.6,316.6,1.6,2.0,323.5,0.00,7.2,10.1,"18:38:40",1
"16/12/26","18:50",0.0,9.9,84.3,1012.3,304.9,1.2,1.9,323.5,0.00,7.4,10.1,"18:43:20",1
"16/12/26","19:00",0.0,9.8,85.4,1012.6,318.6,0.7,1.9,311.1,0.00,7.5,10.0,"18:58:34",1
"16/12/26","19:10",0.0,9.5,86.6,1012.1,319.3,1.6,2.5,320.8,0.00,7.4,10.0,"19:00:58",1
"16/12/26","19:20",0.0,9.5,87.8,1012.1,304.8,1.2,1.8,316.7,0.00,7.6,9.9,"19:16:50",1
"16/12/26","19:30",0.0,9.4,88.0,1012.3,285.9,1.2,1.6,292.8,0.00,7.6,10.0,"19:29:06",1
"16/12/26","19:40",0.0,9.4,87.5,1012.1,291.2,1.3,1.7,321.5,0.00,7.5,9.8,"19:39:06",1
"16/12/26","19:50",0.0,9.5,87.6,1012.1,318.9,1.5,2.0,318.8,0.00,7.6,9.9,"19:43:32",1
"16/12/26","20:00",0.0,9.4,88.1,1012.1,312.7,1.6,2.0,319.9,0.00,7.6,9.9,"19:53:06",1
"16/12/26","20:10",0.0,9.3,88.1,1011.4,301.3,1.3,2.0,321.1,0.00,7.5,9.9,"20:00:08",1
"16/12/26","20:20",0.0,9.4,87.6,1011.2,301.3,1.2,1.6,309.3,0.00,7.5,9.7,"20:18:16",1
"16/12/26","20:30",0.0,9.4,87.3,1011.2,305.8,1.2,1.9,318.5,0.00,7.4,9.7,"20:29:10",1
"16/12/26","20:40",0.0,9.4,87.5,1011.2,314.6,1.1,1.9,319.5,0.00,7.5,9.9,"20:32:08",1
"16/12/26","20:50",0.0,9.3,88.2,1011.6,309.0,1.2,2.1,320.9,0.00,7.5,9.7,"20:46:02",1
"16/12/26","21:00",0.0,9.2,88.8,1011.4,311.8,1.3,1.9,324.3,0.00,7.5,9.9,"20:51:36",1
"16/12/26","21:10",0.0,9.1,89.4,1010.9,314.7,1.2,1.7,314.6,0.00,7.5,9.7,"21:01:36",1
"16/12/26","21:20",0.0,9.1,89.9,1010.9,296.8,1.2,1.4,298.9,0.00,7.6,9.8,"21:16:40",1
"16/12/26","21:30",0.0,9.1,90.1,1010.4,305.2,1.1,1.3,308.6,0.00,7.6,9.8,"21:26:26",1
"16/12/26","21:40",0.0,9.1,90.2,1010.4,297.6,0.8,1.9,315.0,0.00,7.6,9.5,"21:37:04",1
"16/12/26","21:50",0.0,9.1,90.4,1010.2,311.9,1.6,1.9,318.7,0.00,7.7,9.9,"21:42:32",1
"16/12/26","22:00",0.0,9.0,90.3,1010.0,288.5,1.1,1.4,304.7,0.00,7.5,9.6,"21:58:00",1
"16/12/26","22:10",0.0,9.0,90.1,1009.7,320.5,1.6,2.1,322.8,0.00,7.5,9.6,"22:04:04",1
"16/12/26","22:20",0.0,9.0,90.2,1009.7,317.5,1.5,1.9,322.4,0.00,7.5,9.7,"22:13:14",1
"16/12/26","22:30",0.0,9.0,90.1,1009.5,314.8,1.2,1.7,305.0,0.00,7.5,9.7,"22:20:08",1
"16/12/26","22:40",0.0,9.1,89.5,1010.0,279.5,1.1,1.4,295.1,0.00,7.5,9.7,"22:30:02",1
"16/12/26","22:50",0.0,9.2,88.8,1009.5,311.7,1.3,2.1,317.2,0.00,7.5,9.8,"22:48:54",1
"16/12/26","23:00",0.0,9.2,88.7,1009.5,317.3,1.1,1.8,314.1,0.00,7.5,9.7,"22:50:40",1
"16/12/26","23:10",0.0,9.2,89.0,1008.8,317.8,0.6,1.3,322.1,0.00,7.5,9.6,"23:01:30",1
"16/12/26","23:20",0.0,9.1,89.4,1008.8,302.7,1.2,2.0,333.2,0.00,7.5,9.5,"23:19:54",1
"16/12/26","23:30",0.0,9.0,89.9,1008.3,304.5,1.5,2.0,321.2,0.00,7.5,9.7,"23:24:08",1
"16/12/26","23:40",0.0,8.9,90.4,1008.1,306.6,1.3,2.2,323.9,0.00,7.5,9.5,"23:34:12",1
"16/12/26","23:50",0.0,8.9,90.5,1007.8,296.0,1.5,2.0,323.0,0.00,7.5,9.4,"23:43:04",1
"16/12/26","24:00",0.0,9.0,90.0,1007.6,309.1,1.3,1.8,299.6,0.00,7.5,9.6,"23:50:40",1
